This demonstration page uses our WeatherBlox Daily Observations layout. Learn more.

41.86663, -103.66717

Hourly Observations for December 25, 2019

Temp ( °F °C ) Dew Point ( °F °C ) Humidity (%) Winds ( mph kmh ) Pressure ( in mb ) Visibility ( mi km ) Precip ( " mm )
12:53 am 00:53 Clear 29 -1.7 26 -3.3 89 89 NW 7 11 29.65 1004 10 16.0934 0 0
1:53 am 01:53 Clear 29 -1.7 26 -3.3 89 89 NW 6 9 29.64 1004 10 16.0934 0 0
2:53 am 02:53 Clear 28 -2.2 25 -3.9 88 88 NW 5 7 29.63 1003 10 16.0934 0 0
3:53 am 03:53 Clear 29 -1.7 25 -3.9 85 85 NW 8 13 29.64 1004 10 16.0934 0 0
4:53 am 04:53 Mostly Clear 31 -0.6 27 -2.8 85 85 NW 10 17 29.66 1004 10 16.0934 0 0
5:53 am 05:53 Cloudy 31 -0.6 27 -2.8 85 85 NW 9 15 29.66 1005 10 16.0934 0 0
6:53 am 06:53 Mostly Cloudy 30 -1.1 26 -3.3 85 85 WNW 7 11 29.67 1005 10 16.0934 0 0
7:53 am 07:53 Mostly Sunny 30 -1.1 27 -2.8 88 88 NW 7 11 29.67 1005 10 16.0934 0 0
8:53 am 08:53 Partly Cloudy 35 1.7 27 -2.8 72 72 NW 10 17 29.7 1006 10 16.0934 0 0
9:53 am 09:53 Cloudy 38 3.3 29 -1.7 70 70 WNW 8 13 29.72 1006 10 16.0934 0 0
10:53 am 10:53 Cloudy 41 5 29 -1.7 62 62 NW 8 13 29.69 1006 10 16.0934 0 0
11:53 am 11:53 Sunny 45 7.2 30 -1.1 56 56 NW 8 13 29.66 1005 10 16.0934 0 0
12:53 pm 12:53 Sunny 47 8.3 28 -2.2 48 48 NW 7 11 29.64 1004 10 16.0934 0 0
1:53 pm 13:53 Mostly Cloudy 48 8.9 31 -0.6 52 52 WNW 7 11 29.65 1004 10 16.0934 0 0
2:53 pm 14:53 Cloudy 46 7.8 29 -1.7 51 51 NNE 12 19 29.69 1005 10 16.0934 0 0
3:53 pm 15:53 Cloudy 44 6.7 29 -1.7 55 55 ENE 3 6 29.73 1007 10 16.0934 0 0
4:53 pm 16:53 Mostly Cloudy 38 3.3 29 -1.7 70 70 N 9 15 29.78 1009 10 16.0934 0 0
5:53 pm 17:53 Partly Cloudy 37 2.8 29 -1.7 73 73 NNW 6 9 29.82 1010 10 16.0934 0 0
6:53 pm 18:53 Cloudy with Light Rain 37 2.8 34 1.1 89 89 WNW 14 22 29.86 1011 9 14.48406 0.001 0.001
7:09 pm 19:09 Cloudy with Light Rain 36 2.2 34 1.1 93 93 NW 12 19 29.89 1012 8 12.87472 0.01 0.254
7:32 pm 19:32 Cloudy 36 2 34 1 93 93 ENE 7 11 29.86 1011 10 16.0934 0 0
7:53 pm 19:53 Cloudy 35 1.7 34 1.1 96 96 NW 6 9 29.86 1011 10 16.0934 0.02 0.508
8:32 pm 20:32 Cloudy 35 1.7 34 1.1 96 96 WNW 8 13 29.9 1013 10 16.0934 0 0
8:53 pm 20:53 Cloudy 34 1.1 34 1.1 100 100 NW 6 9 29.86 1011 10 16.0934 0 0
9:38 pm 21:38 Cloudy 34 1.1 34 1.1 100 100 Calm 29.93 1014 10 16.0934 0 0
9:53 pm 21:53 Cloudy 34 1.1 34 1.1 100 100 WSW 5 7 29.89 1012 10 16.0934 0 0
10:53 pm 22:53 Cloudy 35 1.7 34 1.1 96 96 WNW 5 7 29.9 1013 10 16.0934 0 0
11:53 pm 23:53 Cloudy 35 1.7 34 1.1 96 96 NW 7 11 29.88 1012 10 16.0934 0 0

Powered by AerisWeather